Regional Weather Roundup
Issued by NWS

Home | Current Version | Previous Version | Text Only | Print | Product List | Glossary Off
Versions: 1 2 3 4 5 6 7 8 9 10 11 12 13 14 15 16 17 18 19 20 21 22 23 24 25 26 27

000
ASUS45 KBOU 221407
RWRCO

WEATHER ROUNDUP FOR COLORADO
NATIONAL WEATHER SERVICE DENVER/BOULDER CO
800 AM MDT TUE AUG 22 2017

NOTE: "FAIR" INDICATES FEW OR NO CLOUDS BELOW 12000 FEET WITH NO
SIGNIFICANT WEATHER AND/OR OBSTRUCTIONS TO VISIBILITY.

COZ001>005-013-030-031-221500-
...NORTHWEST COLORADO...

CITY           SKY/WX    TMP DP  RH WIND       PRES   REMARKS
CRAIG          FAIR      52  38  58 CALM      30.37R
HAYDEN         FAIR      58  37  45 E10       30.40R
MEEKER         FAIR      57  39  51 CALM      30.38R
RABBIT EARS PA FAIR      54  32  43 W3        30.65R
STEAMBOAT SPGS FAIR      49  38  66 CALM      30.41R
WALDEN         FAIR      45  36  70 SE5       30.50S
$$

COZ006>008-011-221500-
...WEST CENTRAL VALLEYS...

CITY           SKY/WX    TMP DP  RH WIND       PRES   REMARKS
GRAND JUNCTION FAIR      74  42  31 E12       30.25R
MONTROSE       FAIR      59  45  59 SE5       30.36R
EAGLE          FAIR      52  39  61 CALM      30.46R
RIFLE          FAIR      59  41  51 CALM      30.33R
DELTA          FAIR      64  44  48 CALM      30.32R
NUCLA          FAIR      63  39  42 SE6       30.38R
$$

COZ017>023-064>068-221500-
...SOUTHWEST COLORADO...

CITY           SKY/WX    TMP DP  RH WIND       PRES   REMARKS
DURANGO        FAIR      56  46  69 NE6       30.40R
CORTEZ         FAIR      57  52  83 E3        30.34R
PAGOSA SPRINGS CLOUDY    56  44  66 CALM      30.46R
TELLURIDE      FAIR      54  40  59 SE3       30.56S
WOLF CREEK PAS CLOUDY    43  37  81 CALM      30.78R
$$

COZ009-010-012-014-032>034-037-058>063-221500-
...CENTRAL COLORADO...

CITY           SKY/WX    TMP DP  RH WIND       PRES   REMARKS
ASPEN          FAIR      56  39  53 CALM      30.47R
BUENA VISTA    FAIR      51  42  71 NW3       30.52R
COPPER MTN     FAIR      54  28  37 SW8       30.76R
BERTHOUD PASS  FAIR      43  37  81 W6        30.79R
COTTONWOOD PAS FAIR      55  32  41 W5        30.62S
GUNNISON       FAIR      48  43  82 W3        30.51R
KREMMLING      FAIR      52  41  66 CALM      30.51R
LEADVILLE      FAIR      45  36  70 CALM      30.61R
MONARCH PASS   FAIR      45  36  70 E12       30.84R
SALIDA         FAIR      53  44  73 N6        30.58R
SUNLIGHT       FAIR      50  32  50 S6        30.70R
WILKERSON PASS FAIR      48  34  57 W5        30.74R
$$

COZ069>075-221500-
...SAN LUIS VALLEY/SANGRE DE CRISTO MOUNTAINS...

CITY           SKY/WX    TMP DP  RH WIND       PRES   REMARKS
ALAMOSA        CLOUDY    52  47  83 CALM      30.47R
DEL NORTE      PTSUNNY   55  46  70 W13       30.50R
LA VETA PASS   NOT AVBL
SAGUACHE         N/A    N/A N/A N/A MISG        N/A
$$

COZ035-036-038>040-221500-
...NORTHERN COLORADO FRONT RANGE...

CITY           SKY/WX    TMP DP  RH WIND       PRES   REMARKS
DENVER INTL AP FAIR      61  56  83 SE12      30.33R
DMNS CITY PARK   N/A     63  50  62 E8        30.34R
AURORA         NOT AVBL
FRONT RANGE AP FAIR      61  59  94 E15       30.36R
ERIE MUNI ARPT FAIR      61  52  71 CALM      30.38R
BOULDER MUN AP FAIR      63  50  63 CALM      30.33S
CENTENNIAL     PTSUNNY   61  49  64 S5        30.36R
BROOMFIELD     MOSUNNY   63  48  59 N8        30.35R
FORT COLLINS   CLOUDY    62  54  74 SE8       30.34R
LONGMONT       FAIR      63  51  65 CALM      30.35R HAZE
$$

COZ041-046-047-076>085-087-088-221500-
...PIKES PEAK/PALMER DIVIDE AND SOUTHERN FOOTHILLS...

CITY           SKY/WX    TMP DP  RH WIND       PRES   REMARKS
COLO. SPRINGS  PTSUNNY   61  57  87 CALM      30.42R
A. F. ACADEMY  NOT AVBL
SCHRIEVER AFB  NOT AVBL
CHEYENNE MTN   NOT AVBL
ELLICOTT       PTSUNNY  N/A N/A N/A SE9       30.40R
FALCON         FOG       56  56  99 CALM      30.44S VSB 1/4
FORT CARSON    NOT AVBL
LIMON          CLOUDY    59  56  89 E6        30.38R
MONUMENT HILL  FAIR      55  52  88 SW5       30.44S
CANON CITY     CLOUDY    64  55  72 MISG      30.37R
WALSENBURG     CLOUDY    63  59  88 CALM      30.41R
TRINIDAD       FAIR      61  52  72 NW8       30.38R
$$

COZ042>045-048>051-090-091-221500-
...NORTHEAST COLORADO...

CITY           SKY/WX    TMP DP  RH WIND       PRES   REMARKS
GREELEY ARPT   CLOUDY    61  56  83 SE5       30.34R
AKRON          CLOUDY    59  55  87 SE12      30.35R
BURLINGTON     CLOUDY    63  60  90 NE9       30.32R
WRAY           NOT AVBL
YUMA           CLOUDY    59  50  72 NE6       30.33R
STERLING       NOT AVBL
HOLYOKE        FAIR      61  54  77 E6        30.32R
FORT MORGAN    NOT AVBL
$$

COZ086-089-092>099-221500-
...SOUTHEAST COLORADO...

CITY           SKY/WX    TMP DP  RH WIND       PRES   REMARKS
PUEBLO         CLOUDY    67  60  78 E7        30.33R
LA JUNTA       CLOUDY    67  61  81 NE10      30.31R
LAMAR          CLOUDY    68  61  78 NE10      30.27R
SPRINGFIELD      N/A     64  64 100 N16       30.28R
$$




USA.gov is the U.S. government's official web portal to all federal, state and local government web resources and services.